IRIDIUM 97 [B]

Last updated on Dec. 19, 2019, 4:28 a.m. UTC

1 27450U 02031A   19352.79924204  .02482134 -16062-5  64842-3 0  9993
2 27450  86.6619 296.2641 0311458 129.0765 233.8661 15.68269975921681

Satellite is not in orbit.